Regional Weather Roundup
Issued by NWS

Home | Current Version | Previous Version | Text Only | Print | Product List | Glossary On
Versions: 1 2 3 4 5 6 7 8 9 10 11 12 13 14 15 16 17 18 19 20 21 22 23 24 25 26 27 28 29 30 31 32 33 34 35 36 37 38 39 40 41 42 43 44 45 46 47 48 49 50
000
ASUS46 KLOX 220612
RWRCA

SOUTHERN CALIFORNIA WEATHER ROUNDUP
NATIONAL WEATHER SERVICE OXNARD CALIFORNIA
1100 PM PDT THU AUG 21 2014

NOTE: "FAIR" INDICATES FEW OR NO CLOUDS BELOW 12,000 FEET WITH NO
SIGNIFICANT WEATHER AND/OR OBSTRUCTIONS TO VISIBILITY.

  -  STATIONS PRECEEDED BY AN ASTERISK (*) ARE NOT NWS OR FAA
     STATIONS AND ARE NOT SUBJECT TO NWS AND FAA QUALITY CONTROL.

CAZ041-042-087-220700-
LA AND ORANGE COUNTY COASTAL AREAS


CITY           SKY/WX    TMP DP  RH WIND       PRES   REMARKS
L.A. DOWNTOWN  CLEAR     68  61  78 CALM      29.96S
L.A. AIRPORT   PTCLDY    69  62  78 W9        29.96S
LONG BEACH     CLEAR     70  63  78 NW7       29.95S

CITY           SKY/WX    TMP DP  RH WIND       PRES   REMARKS
AVALON           N/A     64 N/A N/A S1          N/A
FULLERTON      CLEAR     73  62  68 W5        29.94S
*GETTY CENTER    N/A     61  61 100 NE2         N/A
HAWTHORNE      CLEAR     69  63  81 CALM      29.96R
*LEO CARRILLO    N/A     68  64  87 NE5         N/A
*LOS ALAMITOS  FAIR      70  63  78 NW6       29.95S
*REDONDO BEACH   N/A     67  63  85 W1        29.96R
SANTA ANA      PTCLDY    73  64  73 CALM      29.95S
STA MONICA APT CLEAR     68  61  78 CALM      29.97S

$$

CAZ547-548-048-220700-
LA COUNTY VALLEYS AND INLAND EMPIRE


CITY           SKY/WX    TMP DP  RH WIND       PRES   REMARKS
BURBANK        CLEAR     70  59  68 S3        29.96S
VAN NUYS       PTCLDY    72  60  66 E5        29.97R

CITY           SKY/WX    TMP DP  RH WIND       PRES   REMARKS
*CHATSWORTH      N/A     72  62  70 E3        29.92S
CHINO          CLEAR     70  61  73 W5        29.97S
*CLAREMONT       N/A     68  57  68 NW2         N/A
MARCH AFB      CLEAR     71  62  74 W7        29.99S
*NORTHRIDGE      N/A     72  59  64 NE3         N/A
ONTARIO        PTCLDY    73  61  65 W3        29.96F
*PASADENA        N/A     72  63  73 CALM        N/A
RIVERSIDE      CLEAR     73  61  65 W5        29.97S
SAN BERNARDINO NOT AVBL
*SAN GABRIEL     N/A     71  59  66 CALM      29.92S
*SAN RAFAEL HI   N/A     70  65  83 SW7         N/A
*SAUGUS          N/A     70  57  63 S5          N/A
*WHITEMAN AP   NOT AVBL
*WOODLAND HILL   N/A     72  61  68 NE2         N/A

$$

CAZ054-055-220700-
LA AND SAN BERNARDINO COUNTY MOUNTAINS


CITY           SKY/WX    TMP DP  RH WIND       PRES   REMARKS
*ACTON           N/A     72  54  53 SE7         N/A
*BIG BEAR AIRP CLEAR     50  46  87 CALM      30.26R
*BIG PINES       N/A     56  47  73 CALM        N/A
MT WILSON NWS    N/A     59  43  55 S6          N/A
SANDBERG       CLEAR     68  52  56 S7        30.14S

$$

CAZ028-029-059-060-099-220700-
ANTELOPE VALLEY AND SURROUNDING AREAS


CITY           SKY/WX    TMP DP  RH WIND       PRES   REMARKS
LANCASTER      CLEAR     74  55  51 SW15      30.00R
PALMDALE       CLEAR     76  49  38 W7        30.01R

CITY           SKY/WX    TMP DP  RH WIND       PRES   REMARKS
29 PALMS       CLEAR     73  57  57 S7        30.06S
BARSTOW/DAGGET CLOUDY    78  54  43 NW6       29.96R
BISHOP         CLEAR     77  38  24 SE14      30.00R
CHINA LAKE     CLEAR     82  50  32 S13       29.92F
EDWARDS AFB    CLEAR     77  52  41 SW12      29.97R
MOJAVE         FAIR      77  50  38 SW14      30.00R
NEEDLES        MOCLDY    79  57  46 W6        29.95S
VICTORVILLE    CLEAR     73  54  49 SE10      30.03R

$$

CAZ039-040-220700-
VENTURA AND SANTA BARBARA COUNTY COAST


CITY           SKY/WX    TMP DP  RH WIND       PRES   REMARKS
CAMARILLO      CLEAR     68  59  73 CALM      29.95R
NWS OXNARD       N/A     65  59  82 CALM      29.96R
OXNARD AIRPORT CLEAR     64  60  87 CALM      29.95S
*POINT MUGU    PTCLDY    67  60  78 CALM      29.96R
SBA APT/GOLETA CLEAR     65  60  84 SE5       29.94R
*SANTA BARBARA   N/A     67  59  77 CALM      30.02R
*VENTURA         N/A     65  59  82 NE3       29.99S

$$

CAZ044-045-220700-
VENTURA COUNTY VALLEYS


CITY           SKY/WX    TMP DP  RH WIND       PRES   REMARKS
*SIMI VALLEY     N/A     68  59  73 CALM      29.91R
*OJAI            N/A     65  57  77 CALM      29.90R
*FILLMORE        N/A     65  58  79 CALM      29.86R

$$

CAZ053-220700-
VENTURA COUNTY MOUNTAINS


CITY           SKY/WX    TMP DP  RH WIND       PRES   REMARKS
*LOCKWOOD VLY    N/A     55  39  54 MISG        N/A
*ROSE VALLEY     N/A     61  52  72 MISG        N/A

$$

CAZ034-035-036-220700-
CENTRAL COAST AND SANTA YNEZ VALLEY


CITY           SKY/WX    TMP DP  RH WIND       PRES   REMARKS
SAN LUIS OBISP CLEAR     62  57  83 CALM      29.96S
SANTA MARIA    CLOUDY    62  57  83 CALM      29.97S

CITY           SKY/WX    TMP DP  RH WIND       PRES   REMARKS
*CAL POLY SLO    N/A     61  59  94 CALM        N/A
*CAMBRIA         N/A     57  55  93 CALM      29.86S
*LOMPOC        CLEAR     61  54  77 W3        29.98R
*PISMO BEACH     N/A     62  59  91 NE3       29.97R
*SANTA YNEZ    FAIR      63  54  72 W3        29.97S

$$

CAZ037-038-051-220700-
SAN LUIS OBISPO COUNTY INTERIOR AND CUYAMA VALLEY


CITY           SKY/WX    TMP DP  RH WIND       PRES   REMARKS
*CUYAMA          N/A     71  50  47 CALM      29.89S
PASO ROBLES    CLEAR     68  52  56 W6        29.95R

$$

CAZ032-033-061-220700-
SOUTHERN DESERTS


CITY           SKY/WX    TMP DP  RH WIND       PRES   REMARKS
BLYTHE         MOCLDY    73  67  81 SE6       29.93S
IMPERIAL       MOCLDY    74  67  78 SE3       29.89F
PALM SPRINGS   CLEAR     81  60  48 E6        29.95S
THERMAL        PTCLDY    74  60  61 CALM      29.89F

$$

ELSEWHERE ACROSS THE WESTERN UNITED STATES AND MEXICO


CITY           SKY/WX    TMP DP  RH WIND       PRES   REMARKS
DENVER, CO     CLOUDY    65  55  70 CALM      30.17R
GRAND CANYON,    N/A    N/A N/A N/A MISG        N/A
HONOLULU, HI   MOCLDY    81  70  69 E13G18    30.00R
KAHULUI, MAUI  PTCLDY    79  70  73 NE16      30.01R
LAKE TAHOE, CA CLEAR     56  39  53 S5        30.18F
LAS VEGAS, NV  PTCLDY    78  49  35 S9        29.95S
MAMMOTH LAKES, FAIR      61  37  41 W3        30.23S
MEXICO CITY, M PTCLDY    61  50  67 W6        30.39R
PHOENIX, AZ    LGT RAIN  73  66  78 NE10      29.95F
PORTLAND, OR   CLOUDY    68  50  52 NW8       29.97R
RENO, NV       CLEAR     72  40  31 NW16      30.05S
SALT LAKE CITY PTCLDY    65  53  65 N8        30.02R
SAN DIEGO, CA  PTCLDY    71  63  75 NW6       29.97S
SAN FRANCISCO, PTCLDY    62  59  90 NW9       29.93S
SAN JOSE, CA   CLEAR     64  59  83 W5        29.94R
SEATTLE, WA    PTCLDY    62  52  69 CALM      30.00R
TIJUANA, MEX   PTCLDY    68  61  77 W7        29.98S

$$

STATION/POSITION TIME  TEMP    WIND        PRES    VSBY  WAVE
                       AIR SEA DIR/SP/G                  HT/PER
                 (UTC) (F)     (DEG/KT/KT) (MB)    (MI)  (FT/S)
POINT ARGUELLO B NOT AVBL
WEST SANTA BARBA 0600   62 62  310/ 16/ 17 1013.2R         4/11
POINT CONCEPTION NOT AVBL
EAST SANTA BARBA 0600   63 63  240/  8/  8 1013.9R
SANTA MONICA BAY 0600   67 72  260/  2/  6 1013.8F         3/10


USA.gov is the U.S. government's official web portal to all federal, state and local government web resources and services.